Meteo Giornale » Osservazioni meteo Stati Uniti (USA) » Richlands
ore: 21:55 - Osservazioni Meteo Richlands
Lat. 37° 4' N Lon. 81° 48' W Alt. 809 metri s.l.m.
22 °C
Sereno
Temp. 24 Ore
18 °C
28 °C
Nord
0 Km/h
Dew point 19 °C
Umidità 83 %
Visibilità 10 Km
Il sole sorge alle ore 06:57
Il sole tramonta alle ore 19:57
| Data e Ora | Cielo e Fenomeni | T °C | DP °C | Um. % | Pres. hPa | Vis. km | Vento km/h | |
|---|---|---|---|---|---|---|---|---|
| Oggi h: 21:55 | Sereno | 22 | 19 | 83 | 1024 | 10 | N 0 | |
| Oggi h: 21:35 | Sereno | 22 | 20 | 88 | 1024 | 10 | N 0 | |
| Oggi h: 21:15 | Sereno | 22 | 20 | 88 | 1023 | 10 | N 0 | |
| Oggi h: 20:55 | Sereno | 23 | 19 | 78 | 1023 | 10 | N 0 | |
| Oggi h: 20:15 | Sereno | 24 | 19 | 73 | 1023 | 10 | N 0 | |
| Oggi h: 19:55 | Sereno | 25 | 18 | 65 | 1023 | 10 | N 0 | |
| Oggi h: 19:35 | Sereno | 25 | 18 | 65 | 1023 | 10 | N 0 | |
| Oggi h: 19:15 | Sereno | 26 | 19 | 65 | 1023 | 10 | N 0 | |
| Oggi h: 18:55 | Sereno | 26 | 19 | 65 | 1023 | 10 | N 0 | |
| Oggi h: 18:35 | Sereno | 26 | 19 | 65 | 1023 | 10 | N 0 | |
| Oggi h: 18:15 | Sereno | 26 | 19 | 65 | 1023 | 10 | N 0 | |
| Oggi h: 17:55 | Sereno | 27 | 18 | 57 | 1024 | 10 | N 0 | |
| Oggi h: 17:35 | Sereno | 27 | 19 | 61 | 1024 | 10 | N 0 | |
| Oggi h: 17:15 | Nuvoloso | 27 | 18 | 57 | 1024 | 10 | N 0 | |
| Oggi h: 14:55 | Molto Nuvoloso | 26 | 19 | 65 | 1024 | 10 | O/NO 9.3 | |
| Oggi h: 14:35 | Nuvoloso | 27 | 19 | 61 | 1024 | 10 | NO 9.3 | |
| Oggi h: 14:15 | Molto Nuvoloso | 27 | 18 | 57 | 1024 | 10 | N 0 | |
| Oggi h: 13:55 | Nuvoloso | 28 | 18 | 54 | 1025 | 10 | N/NO 9.3 | |
| Oggi h: 13:35 | Sereno | 28 | 18 | 54 | 1025 | 10 | N 5.5 | |
| Oggi h: 13:15 | Nuvoloso | 27 | 18 | 57 | 1025 | 10 | N 5.5 | |
| Oggi h: 12:15 | Molto Nuvoloso | 24 | 18 | 69 | 1025 | 10 | N/NO 7.4 | |
| Oggi h: 11:55 | Nuvoloso | 26 | 18 | 61 | 1025 | 10 | O/NO 9.3 | |
| Oggi h: 08:35 | Sereno | 20 | 19 | 93 | 1025 | 10 | N 0 | |
| Oggi h: 08:15 | Sereno | 20 | 18 | 88 | 1025 | 10 | N 0 | |
| Oggi h: 07:55 | Sereno | 19 | 18 | 93 | 1025 | 10 | N 0 | |
| Oggi h: 07:35 | Sereno | 19 | 18 | 93 | 1025 | 10 | N 5.5 | |
| Oggi h: 06:15 | Sereno | 18 | 18 | 100 | 1024 | 10 | N 0 | |
| Oggi h: 05:55 | Sereno | 19 | 18 | 93 | 1024 | 10 | N 0 | |
| Oggi h: 05:35 | Sereno | 18 | 18 | 100 | 1024 | 10 | N 0 | |
| Oggi h: 05:15 | Sereno | 18 | 18 | 100 | 1024 | 10 | N 0 | |
| Oggi h: 04:55 | Sereno | 18 | 18 | 100 | 1024 | 10 | N 0 | |
| Oggi h: 04:35 | Sereno | 19 | 18 | 93 | 1024 | 10 | N 0 | |
| Oggi h: 03:55 | Sereno | 18 | 18 | 100 | 1023 | 10 | N 0 | |
| Oggi h: 03:35 | Sereno | 19 | 18 | 93 | 1023 | 10 | N 0 | |
| Oggi h: 03:15 | Sereno | 19 | 19 | 100 | 1023 | 10 | N 0 | |
| Oggi h: 02:55 | Sereno | 20 | 19 | 93 | 1024 | 10 | N 0 | |
| Oggi h: 02:35 | Sereno | 19 | 19 | 100 | 1024 | 10 | N 0 | |
| Oggi h: 02:15 | Sereno | 20 | 19 | 93 | 1024 | 10 | N 0 | |
| Oggi h: 01:55 | Sereno | 19 | 18 | 93 | 1024 | 10 | N 0 | |
| Oggi h: 01:35 | Sereno | 20 | 18 | 88 | 1024 | 10 | N 0 | |
| Oggi h: 01:15 | Sereno | 19 | 19 | 100 | 1024 | 10 | N 0 | |
| Oggi h: 00:55 | Sereno | 20 | 19 | 93 | 1024 | 10 | N 0 | |
| Oggi h: 00:35 | Sereno | 20 | 19 | 93 | 1024 | 10 | N 0 | |
| Oggi h: 00:15 | Sereno | 20 | 18 | 88 | 1024 | 10 | N 0 | |
| Ieri h: 23:55 | Sereno | 20 | 18 | 88 | 1024 | 10 | N 5.5 | |
| Ieri h: 23:35 | Sereno | 21 | 18 | 82 | 1024 | 10 | N 0 | |
| Ieri h: 23:15 | Sereno | 21 | 18 | 82 | 1024 | 10 | N 0 | |
| Ieri h: 22:55 | Sereno | 21 | 18 | 82 | 1024 | 10 | N 0 | |
| Ieri h: 22:35 | Sereno | 22 | 18 | 78 | 1024 | 10 | N 0 | |



